FW5619 Weather Reports


Display with metric or nautical units.
time (UTC)temp
F
wind
direction
speed
MPH
gust
MPH
rain 1hr
in
rain 24hr
in
rain mn
in
humidity
%
barometer
mb
20260502224018 57 229 5.0 9.0 0.00 0.03 0.03 71 1011.2
20260502223618 57 229 4.0 9.0 0.00 0.03 0.03 71 1011.2
20260502223018 57 229 5.0 10.0 0.00 0.03 0.03 70 1011.3
20260502222518 57 229 6.0 10.0 0.00 0.03 0.03 68 1011.4
20260502222017 57 232 6.0 11.0 0.00 0.03 0.03 68 1011.3
20260502221519 57 271 5.0 9.0 0.00 0.03 0.03 67 1011.3
20260502221016 58 276 4.0 8.0 0.00 0.03 0.03 66 1011.3
20260502220516 58 276 3.0 8.0 0.00 0.03 0.03 65 1011.2
20260502220016 58 276 4.0 9.0 0.00 0.03 0.03 63 1011.2
20260502215517 58 276 2.0 7.0 0.00 0.03 0.03 63 1011.4
20260502215016 58 276 1.0 3.0 0.00 0.03 0.03 61 1011.3
20260502214532 58 276 1.0 6.0 0.00 0.03 0.03 60 1011.3
20260502214019 58 276 1.0 6.0 0.00 0.03 0.03 60 1011.2
20260502213516 58 276 2.0 7.0 0.00 0.03 0.03 61 1011.2
20260502213016 58 276 4.0 11.0 0.00 0.03 0.03 63 1011.1
20260502212515 58 276 5.0 11.0 0.00 0.03 0.03 61 1011.0
20260502212016 59 276 3.0 6.0 0.00 0.03 0.03 56 1011.0
20260502211518 60 276 1.0 7.0 0.00 0.03 0.03 51 1011.0
20260502211014 60 276 4.0 7.0 0.00 0.03 0.03 50 1010.9
20260502210513 60 276 1.0 7.0 0.00 0.03 0.03 49 1010.9
20260502210023 61 276 0.0 7.0 0.00 0.03 0.03 48 1011.0
20260502205516 60 276 4.0 7.0 0.00 0.03 0.03 48 1011.0
20260502205013 60 276 1.0 4.0 0.00 0.03 0.03 49 1011.0
20260502204517 61 276 1.0 8.0 0.00 0.03 0.03 49 1010.9
20260502204014 61 276 2.0 6.0 0.00 0.03 0.03 49 1011.0
20260502203512 62 276 0.0 8.0 0.00 0.03 0.03 49 1011.0
20260502203014 61 276 3.0 9.0 0.00 0.03 0.03 50 1011.0
20260502202511 60 276 5.0 11.0 0.00 0.03 0.03 51 1011.0
20260502202011 61 269 5.0 11.0 0.00 0.03 0.03 50 1011.1
20260502201511 61 269 4.0 11.0 0.00 0.03 0.03 49 1011.2
20260502201015 61 269 4.0 11.0 0.00 0.03 0.03 48 1011.2
20260502200509 61 269 4.0 11.0 0.00 0.03 0.03 51 1011.3
20260502200009 61 269 3.0 11.0 0.00 0.03 0.03 50 1011.4
20260502195509 61 265 5.0 11.0 0.00 0.03 0.03 51 1011.5
20260502195007 61 248 5.0 11.0 0.00 0.03 0.03 50 1011.6
20260502194505 62 244 4.0 10.0 0.00 0.03 0.03 51 1011.7
20260502194004 61 236 2.0 10.0 0.00 0.03 0.03 51 1011.6
20260502193504 62 236 3.0 10.0 0.00 0.03 0.03 53 1011.7
20260502193003 62 225 1.0 8.0 0.00 0.03 0.03 55 1011.9
20260502192503 62 225 4.0 8.0 0.00 0.03 0.03 55 1011.9
20260502192001 61 217 2.0 7.0 0.00 0.03 0.03 56 1012.0
20260502191600 60 217 3.0 7.0 0.00 0.03 0.03 57 1012.1
20260502191059 60 216 3.0 9.0 0.00 0.03 0.03 59 1012.1
20260502190558 60 216 2.0 9.0 0.00 0.03 0.03 61 1012.1
20260502190057 59 202 0.0 5.0 0.00 0.03 0.03 64 1012.2
20260502185557 59 202 2.0 5.0 0.00 0.03 0.03 66 1012.1
20260502185055 59 202 2.0 5.0 0.00 0.03 0.03 68 1012.2
20260502184558 58 202 2.0 5.0 0.00 0.03 0.03 69 1012.2
20260502184057 57 202 2.0 6.0 0.00 0.03 0.03 69 1012.2
20260502183552 57 202 2.0 6.0 0.00 0.03 0.03 71 1012.2
20260502183052 57 205 2.0 5.0 0.00 0.03 0.03 71 1012.3
20260502182551 57 205 2.0 6.0 0.00 0.03 0.03 70 1012.5
20260502182053 57 205 3.0 6.0 0.00 0.03 0.03 71 1012.6
20260502181550 57 205 3.0 6.0 0.00 0.03 0.03 74 1012.6
20260502181051 56 205 3.0 6.0 0.00 0.03 0.03 74 1012.6
20260502180548 56 207 2.0 6.0 0.00 0.03 0.03 73 1012.6
20260502180103 57 207 3.0 9.0 0.00 0.03 0.03 74 1012.7
20260502164040 55 209 2.0 4.0 0.00 0.03 0.03 80 1013.4
20260502163541 55 209 2.0 4.0 0.00 0.03 0.03 80 1013.5
20260502163040 54 209 2.0 4.0 0.00 0.03 0.03 81 1013.5
20260502162542 54 209 1.0 6.0 0.00 0.03 0.03 82 1013.5
20260502162039 54 209 2.0 6.0 0.00 0.03 0.03 82 1013.5
20260502161640 54 209 3.0 5.0 0.00 0.03 0.03 82 1013.4
20260502161038 54 213 2.0 4.0 0.00 0.03 0.03 83 1013.5
20260502160541 54 213 1.0 5.0 0.00 0.03 0.03 83 1013.5
20260502152038 53 214 4.0 6.0 0.00 0.03 0.03 85 1013.5
20260502151537 53 205 1.0 3.0 0.00 0.03 0.03 85 1013.6
20260502151037 53 205 1.0 3.0 0.00 0.03 0.03 85 1013.5
20260502150536 53 205 1.0 4.0 0.00 0.03 0.03 85 1013.5
20260502130527 53 215 1.0 3.0 0.00 0.03 0.03 87 1014.0
20260502123525 52 360 1.0 3.0 0.00 0.03 0.03 90 1013.9
20260502123025 52 360 0.0 5.0 0.00 0.03 0.03 91 1013.9
20260502122523 51 213 2.0 5.0 0.00 0.03 0.03 91 1013.9
20260502122122 52 213 1.0 3.0 0.00 0.03 0.03 92 1013.9
20260502121535 52 213 0.0 3.0 0.00 0.03 0.03 92 1014.1
20260502121019 52 213 1.0 3.0 0.00 0.03 0.03 92 1014.1
20260502120518 51 213 1.0 4.0 0.00 0.03 0.03 92 1014.0
20260502115517 51 360 2.0 6.0 0.00 0.03 0.03 92 1014.1
20260502115017 51 360 3.0 6.0 0.01 0.03 0.03 92 1014.3
20260502114517 50 360 2.0 8.0 0.01 0.03 0.03 92 1014.4
20260502114016 50 360 4.0 8.0 0.02 0.03 0.03 92 1014.3
20260502113517 50 360 3.0 6.0 0.03 0.03 0.03 92 1014.1
20260502113015 50 360 3.0 6.0 0.03 0.03 0.03 92 1013.9
20260502112515 50 189 1.0 6.0 0.03 0.03 0.03 92 1013.6
20260502112017 50 189 4.0 6.0 0.03 0.03 0.03 92 1013.5
20260502111514 50 188 2.0 5.0 0.03 0.03 0.03 91 1013.6
20260502111014 50 188 3.0 5.0 0.03 0.03 0.03 91 1013.4
20260502110514 50 171 1.0 4.0 0.03 0.03 0.03 91 1013.4
20260502110018 50 169 1.0 5.0 0.03 0.03 0.03 91 1013.2
20260502105513 50 169 3.0 5.0 0.03 0.03 0.03 90 1013.2
20260502105114 50 244 2.0 4.0 0.02 0.02 0.02 90 1013.2
20260502104512 50 360 0.0 3.0 0.02 0.02 0.02 90 1013.2
20260502104011 51 248 0.0 4.0 0.01 0.01 0.01 89 1013.3
20260502103511 51 248 2.0 7.0 0.00 0.00 0.00 89 1013.7
20260502103011 51 360 3.0 7.0 0.00 0.00 0.00 88 1013.6
20260502102511 51 360 4.0 6.0 0.00 0.00 0.00 88 1013.5
20260502102011 51 360 2.0 8.0 0.00 0.00 0.00 88 1013.5
20260502101513 51 360 3.0 10.0 0.00 0.00 0.00 88 1013.6
20260502101010 51 360 5.0 12.0 0.00 0.00 0.00 88 1013.7
20260502100510 51 360 7.0 12.0 0.00 0.00 0.00 88 1013.9
20260502091507 51 229 6.0 10.0 0.00 0.00 0.00 88 1013.4
20260502091006 51 227 5.0 10.0 0.00 0.00 0.00 88 1013.3
20260502090505 51 244 5.0 11.0 0.00 0.00 0.00 87 1013.3
20260502071051 51 276 6.0 15.0 0.00 0.00 0.00 90 1013.4
20260502070551 51 235 8.0 15.0 0.00 0.00 0.00 90 1013.6
20260502070050 51 236 10.0 16.0 0.00 0.00 0.00 90 1013.5
20260502065550 51 227 9.0 16.0 0.00 0.00 0.00 90 1013.5
20260502065049 51 230 10.0 15.0 0.00 0.00 0.00 90 1013.6
20260502064548 51 221 9.0 17.0 0.00 0.00 0.00 90 1013.6
20260502064050 51 234 11.0 17.0 0.00 0.00 0.00 90 1013.6
20260502063547 51 254 8.0 17.0 0.00 0.00 0.00 90 1013.6
20260502063048 51 232 6.0 15.0 0.00 0.00 0.00 90 1013.6
20260502062546 51 250 11.0 15.0 0.00 0.00 0.00 90 1013.7
20260502062046 51 205 8.0 15.0 0.00 0.00 0.00 89 1013.7
20260502061545 51 229 8.0 12.0 0.00 0.00 0.00 89 1013.9
20260502061044 51 203 6.0 12.0 0.00 0.00 0.00 89 1014.0
20260502060544 51 205 8.0 15.0 0.00 0.00 0.00 89 1014.0
20260502060043 51 238 9.0 15.0 0.00 0.00 0.00 89 1014.0
20260502055543 51 236 11.0 15.0 0.00 0.00 0.00 88 1014.0
20260502055042 51 245 8.0 13.0 0.00 0.00 0.00 88 1014.0
20260502054544 51 213 6.0 14.0 0.00 0.00 0.00 88 1014.1
20260502054040 51 227 6.0 11.0 0.00 0.00 0.00 88 1013.9
20260502053540 51 226 4.0 10.0 0.00 0.00 0.00 87 1013.8
20260502053040 51 210 4.0 10.0 0.00 0.00 0.00 87 1013.5
20260502052539 51 200 5.0 11.0 0.00 0.00 0.00 86 1013.5
20260502052043 51 223 5.0 11.0 0.00 0.00 0.00 85 1013.7
20260502051539 52 236 6.0 10.0 0.00 0.00 0.00 85 1013.6
20260502051038 52 225 6.0 9.0 0.00 0.00 0.00 85 1013.7
20260502050538 52 242 4.0 8.0 0.00 0.00 0.00 85 1013.9
20260502050042 52 221 5.0 9.0 0.00 0.00 0.00 84 1013.9
20260502045538 52 218 4.0 12.0 0.00 0.00 0.00 83 1013.9
20260502045038 52 213 9.0 12.0 0.00 0.00 0.00 83 1014.0
20260502044536 52 222 5.0 11.0 0.00 0.00 0.00 82 1014.0
20260502044036 52 240 8.0 12.0 0.00 0.00 0.00 82 1013.8
20260502043536 52 237 9.0 12.0 0.00 0.00 0.00 83 1014.0
20260502043037 52 221 7.0 14.0 0.00 0.00 0.00 83 1014.1
20260502042537 52 245 9.0 16.0 0.00 0.00 0.00 83 1014.2
20260502042034 52 237 10.0 16.0 0.00 0.00 0.00 83 1014.2
20260502041533 52 234 9.0 14.0 0.00 0.00 0.00 83 1014.0
20260502041031 52 229 7.0 14.0 0.00 0.00 0.00 82 1013.9
20260502040532 52 271 8.0 16.0 0.00 0.00 0.00 81 1013.9
20260502040028 52 246 6.0 16.0 0.00 0.00 0.00 81 1013.9
20260502035528 52 217 6.0 13.0 0.00 0.00 0.00 81 1013.9
20260502035128 52 225 8.0 13.0 0.00 0.00 0.00 80 1014.0
20260502034528 52 215 7.0 15.0 0.00 0.00 0.00 80 1013.9
20260502034027 52 190 6.0 12.0 0.00 0.00 0.00 80 1013.8
20260502033526 52 246 7.0 12.0 0.00 0.00 0.00 80 1013.7
20260502033034 52 194 5.0 12.0 0.00 0.00 0.00 80 1013.8
20260502032527 52 210 7.0 16.0 0.00 0.00 0.00 80 1013.9
20260502032027 52 185 5.0 16.0 0.00 0.00 0.00 81 1013.9
20260502031527 52 212 7.0 18.0 0.00 0.00 0.00 81 1014.1
20260502031027 52 212 10.0 19.0 0.00 0.00 0.00 82 1014.2
20260502030526 52 219 11.0 19.0 0.00 0.00 0.00 82 1014.2
20260502030026 52 229 11.0 18.0 0.00 0.00 0.00 83 1014.4
20260502025526 51 275 12.0 23.0 0.00 0.00 0.00 83 1014.4
20260502025027 51 215 13.0 22.0 0.00 0.00 0.00 84 1014.4
20260502024525 51 200 14.0 22.0 0.00 0.00 0.00 85 1014.4
20260502024025 51 196 14.0 21.0 0.00 0.00 0.00 85 1014.1
20260502023525 51 185 14.0 24.0 0.00 0.00 0.00 85 1014.1
20260502023024 51 202 17.0 27.0 0.00 0.00 0.00 85 1014.0
20260502022524 51 193 16.0 25.0 0.00 0.00 0.00 85 1014.0
20260502022024 51 200 16.0 25.0 0.00 0.00 0.00 84 1013.9
20260502021523 51 171 16.0 25.0 0.00 0.00 0.00 85 1014.1
20260502021023 51 195 18.0 25.0 0.00 0.00 0.00 85 1014.0
20260502020523 51 198 17.0 27.0 0.00 0.00 0.00 84 1014.1
20260502020023 51 200 18.0 25.0 0.00 0.00 0.00 84 1014.0
20260502015622 51 178 17.0 23.0 0.00 0.00 0.00 84 1014.0
20260502015022 51 212 16.0 24.0 0.00 0.00 0.00 84 1014.1
20260502014527 51 202 17.0 23.0 0.00 0.00 0.00 84 1014.0
20260502014021 51 194 17.0 23.0 0.00 0.00 0.00 84 1014.0
20260502013521 52 186 15.0 25.0 0.00 0.00 0.00 84 1014.1
20260502013021 51 181 17.0 25.0 0.00 0.00 0.00 83 1014.0
20260502012521 52 360 19.0 23.0 0.00 0.00 0.00 83 1014.0
20260502012021 52 360 17.0 26.0 0.00 0.00 0.00 83 1014.0
20260502011521 52 360 20.0 30.0 0.00 0.00 0.00 82 1013.9
20260502011021 52 360 18.0 30.0 0.00 0.00 0.00 82 1013.7
20260502010520 52 360 20.0 29.0 0.00 0.00 0.00 81 1013.5
20260502010020 52 360 18.0 29.0 0.00 0.01 0.00 81 1013.5
20260502005519 52 360 17.0 27.0 0.00 0.01 0.00 80 1013.6
20260502005019 52 202 16.0 25.0 0.00 0.01 0.00 80 1013.6
20260502004534 52 198 16.0 26.0 0.00 0.01 0.00 79 1013.6
20260502004019 52 360 17.0 25.0 0.00 0.01 0.00 79 1013.6
20260502003518 52 360 18.0 24.0 0.00 0.01 0.00 79 1013.7
20260502003018 52 360 15.0 24.0 0.00 0.01 0.00 79 1013.7
20260502002518 52 360 18.0 24.0 0.00 0.01 0.00 80 1013.6
20260502002018 52 360 16.0 22.0 0.00 0.01 0.00 80 1013.5
20260502001518 52 360 14.0 23.0 0.00 0.01 0.00 81 1013.5
20260502001018 52 360 14.0 26.0 0.00 0.01 0.00 81 1013.3
20260502000517 52 360 16.0 26.0 0.00 0.01 0.00 81 1013.3
20260502000018 52 360 11.0 23.0 0.00 0.01 0.00 81 1013.3
20260501235518 52 360 15.0 23.0 0.00 0.01 0.00 81 1013.3
20260501235017 52 181 12.0 23.0 0.00 0.01 0.00 82 1013.3
20260501234525 52 225 12.0 20.0 0.00 0.01 0.00 82 1013.3
20260501234016 52 360 13.0 24.0 0.00 0.01 0.00 81 1013.3
20260501233517 52 360 15.0 26.0 0.00 0.01 0.00 81 1013.2
20260501233016 52 360 16.0 26.0 0.00 0.01 0.00 81 1013.2
20260501232515 52 360 14.0 22.0 0.00 0.01 0.00 81 1013.1
20260501232016 52 360 13.0 23.0 0.00 0.01 0.00 80 1013.0
20260501231519 52 211 11.0 22.0 0.00 0.01 0.00 80 1013.0
20260501231015 52 201 13.0 22.0 0.00 0.01 0.00 79 1013.0
20260501230515 52 207 14.0 27.0 0.00 0.01 0.00 79 1012.9
20260501230015 53 194 15.0 27.0 0.00 0.03 0.00 78 1013.0
20260501225514 53 180 16.0 27.0 0.00 0.03 0.00 78 1012.9
20260501225014 53 202 16.0 27.0 0.00 0.03 0.00 78 1012.9
20260501224514 53 190 14.0 22.0 0.00 0.03 0.00 78 1012.8